Home > Weather > Adelaide > Past weeks

Flag for Australia Weather for the Past 2 Weeks in Adelaide, South Australia, Australia

Now
61 °F

Passing clouds.


Feels Like: 61 °F
Forecast: 60 / 71 °F
Wind: 7 mph from Southeast

Location: Adelaide Airport

Current Time: Feb 15, 2016 at 7:50:29 AM

Latest Report: Feb 15, 2016 at 7:00 AM


Visibility: N/A

Pressure: 30.01 "Hg

Humidity: 72%

Dew point: 52 °F

Location of AdelaideLocation

Historic Weather in Adelaide — Graph

°F

Adelaide Temperature Yesterday

Maximum temperature yesterday: 73 °F (at 2:30 PM)
Minimum temperature yesterday: 61 °F (at 3:00 AM)
Average temperature yesterday: 67 °F

High & Low Weather Summary for the Past Weeks

 TemperatureHumidityPressure
High90 °F (Feb 11, 2:30 PM)94% (Feb 2, 7:27 AM)30.18 "Hg (Feb 2, 7:27 AM)
Low59 °F (Feb 5, 6:00 AM)22% (Feb 11, 2:30 PM)29.39 "Hg (Feb 2, 8:19 AM)
Average70 °F60%29.92 "Hg
* Reported Jan 31 6:30 AM — Feb 15 6:30 AM, Adelaide, Weather by CustomWeather, © 2016

Note: Actual official high and low records may vary slightly from our data, if they occured in-between our weather recording intervals... More about our weather records

Advertising

Adelaide Weather History for the Previous 24 Hours

 ConditionsComfort  
Time TempWeatherWind HumidityBarometerVisibility
6:30 AM
Mon, Feb 15
61 °FPassing clouds.8 mph72%30.01 "HgN/A
6:00 AM63 °FPassing clouds.9 mph73%29.98 "HgN/A
5:30 AM63 °FPartly cloudy.7 mph73%29.98 "HgN/A
5:00 AM63 °FPassing clouds.5 mph73%29.98 "HgN/A
4:30 AM63 °FPassing clouds.6 mph73%29.98 "HgN/A
4:00 AM63 °FPassing clouds.6 mph73%29.98 "HgN/A
3:30 AM63 °FPassing clouds.7 mph73%29.98 "HgN/A
3:00 AM63 °FPassing clouds.6 mph73%29.98 "HgN/A
2:30 AM61 °FPassing clouds.5 mph77%30.01 "HgN/A
2:00 AM61 °FPassing clouds.6 mph77%30.01 "HgN/A
1:30 AM61 °FPassing clouds.6 mph77%30.01 "HgN/A
1:00 AM61 °FPassing clouds.6 mph77%30.01 "HgN/A
12:30 AM63 °FPassing clouds.6 mph73%30.01 "HgN/A
12:00 AM63 °FPassing clouds.8 mph73%30.04 "HgN/A
11:30 PM
Sun, Feb 14
64 °FPassing clouds.9 mph64%30.04 "HgN/A
11:00 PM64 °FPassing clouds.8 mph64%30.04 "HgN/A
10:30 PM64 °FPassing clouds.8 mph64%30.04 "HgN/A
10:00 PM66 °FPassing clouds.10 mph64%30.04 "HgN/A
9:30 PM68 °FPassing clouds.9 mph60%30.01 "HgN/A
9:00 PM68 °FPassing clouds.9 mph60%30.01 "HgN/A
8:30 PM68 °FPartly sunny.10 mph64%30.01 "HgN/A
8:00 PM68 °FPartly sunny.13 mph64%29.98 "HgN/A
7:30 PM70 °FPartly sunny.15 mph60%29.98 "HgN/A
7:00 PM70 °FPartly sunny.16 mph57%29.98 "HgN/A
6:30 PM72 °FPartly sunny.16 mph53%29.98 "HgN/A
6:00 PM72 °FPartly sunny.16 mph53%29.98 "HgN/A
5:30 PM72 °FScattered clouds.17 mph50%29.98 "HgN/A
5:00 PM72 °FScattered clouds.17 mph50%29.98 "HgN/A
4:30 PM73 °FPassing clouds.16 mph53%29.98 "HgN/A
4:00 PM72 °FPassing clouds.16 mph53%29.98 "HgN/A
3:30 PM72 °FPassing clouds.15 mph50%29.98 "HgN/A
2:30 PM73 °FPassing clouds.15 mph47%30.01 "HgN/A
1:30 PM72 °FPassing clouds.15 mph47%30.01 "HgN/A
12:30 PM72 °FScattered clouds.12 mph53%30.01 "HgN/A
11:30 AM72 °FScattered clouds.14 mph50%30.01 "HgN/A
11:00 AM70 °FScattered clouds.13 mph57%30.01 "HgN/A
10:30 AM72 °FScattered clouds.14 mph53%30.01 "HgN/A
9:30 AM68 °FBroken clouds.10 mph64%30.01 "HgN/A
9:00 AM68 °FPartly sunny.12 mph64%30.01 "HgN/A
8:30 AM66 °FPartly sunny.7 mph68%30.01 "HgN/A
8:00 AM64 °FPartly sunny.6 mph73%29.98 "HgN/A
7:30 AM63 °FPartly sunny.5 mph77%29.98 "HgN/A
7:00 AM63 °FPassing clouds.6 mph77%29.98 "HgN/A
Weather by CustomWeather, © 2016

See weather overviewHow to use our weather pages